| time (UTC) | temp C | wind direction | speed KPH | gust KPH | rain 1hr cm | rain 24hr cm | rain mn cm | humidity % | barometer mb |
| 20260902134150 | 10 | 190 | 1.6 | 1.6 | 0.00 | 0.00 | 0.00 | 65 | 1030.7 |
| 20260902133646 | 10 | 177 | 1.6 | 1.6 | 0.00 | 0.00 | 0.00 | 67 | 1030.9 |
| 20260902133145 | 8 | 218 | 0.0 | 0.0 | 0.00 | 0.00 | 0.00 | 70 | 1030.4 |
| 20260902132641 | 8 | 203 | 0.0 | 1.6 | 0.00 | 0.00 | 0.00 | 71 | 1030.4 |
| 20260902132136 | 7 | 208 | 0.0 | 0.0 | 0.00 | 0.00 | 0.00 | 75 | 1030.4 |
| 20260902131632 | 8 | 208 | 1.6 | 1.6 | 0.00 | 0.00 | 0.00 | 73 | 1030.3 |
| 20260902131127 | 8 | 158 | 1.6 | 1.6 | 0.00 | 0.00 | 0.00 | 74 | 1030.7 |
| 20260902130623 | 7 | 189 | 1.6 | 1.6 | 0.00 | 0.00 | 0.00 | 76 | 1030.4 |
| 20260902130118 | 8 | 249 | 0.0 | 1.6 | 0.00 | 0.00 | 0.00 | 77 | 1030.8 |
| 20260902125614 | 8 | 217 | 0.0 | 0.0 | 0.00 | 0.00 | 0.00 | 75 | 1030.5 |
| 20260902125109 | 8 | 201 | 0.0 | 1.6 | 0.00 | 0.00 | 0.00 | 76 | 1030.5 |
| 20260902124605 | 7 | 170 | 3.2 | 3.2 | 0.00 | 0.00 | 0.00 | 79 | 1030.4 |
| 20260902124105 | 7 | 219 | 0.0 | 0.0 | 0.00 | 0.00 | 0.00 | 81 | 1030.2 |
| 20260902123601 | 7 | 216 | 0.0 | 0.0 | 0.00 | 0.00 | 0.00 | 80 | 1030.2 |
| 20260902123055 | 8 | 218 | 0.0 | 0.0 | 0.00 | 0.00 | 0.00 | 80 | 1030.2 |
| 20260902122550 | 8 | 223 | 0.0 | 0.0 | 0.00 | 0.00 | 0.00 | 77 | 1029.9 |
| 20260902122046 | 8 | 217 | 0.0 | 0.0 | 0.00 | 0.00 | 0.00 | 79 | 1030.2 |
| 20260902121545 | 8 | 181 | 1.6 | 1.6 | 0.00 | 0.00 | 0.00 | 81 | 1030.0 |
| 20260902121040 | 8 | 207 | 0.0 | 1.6 | 0.00 | 0.00 | 0.00 | 80 | 1030.0 |
| 20260902120536 | 8 | 249 | 0.0 | 0.0 | 0.00 | 0.00 | 0.00 | 78 | 1030.2 |
| 20260902120032 | 10 | 192 | 1.6 | 1.6 | 0.00 | 0.00 | 0.00 | 75 | 1029.8 |
| 20260902115527 | 9 | 193 | 1.6 | 1.6 | 0.00 | 0.00 | 0.00 | 76 | 1030.0 |
| 20260902115024 | 10 | 209 | 0.0 | 1.6 | 0.00 | 0.00 | 0.00 | 77 | 1030.0 |
| 20260902114519 | 10 | 197 | 0.0 | 1.6 | 0.00 | 0.00 | 0.00 | 76 | 1030.3 |
| 20260902114019 | 9 | 238 | 0.0 | 0.0 | 0.00 | 0.00 | 0.00 | 78 | 1030.2 |
| 20260902113515 | 8 | 195 | 1.6 | 1.6 | 0.00 | 0.00 | 0.00 | 81 | 1030.2 |
| 20260902113010 | 8 | 210 | 0.0 | 0.0 | 0.00 | 0.00 | 0.00 | 81 | 1029.9 |
| 20260902112505 | 9 | 224 | 0.0 | 0.0 | 0.00 | 0.00 | 0.00 | 79 | 1029.8 |
| 20260902112001 | 8 | 176 | 3.2 | 3.2 | 0.00 | 0.00 | 0.00 | 80 | 1029.9 |
| 20260902111457 | 8 | 178 | 1.6 | 1.6 | 0.00 | 0.00 | 0.00 | 83 | 1030.0 |
| 20260902110952 | 7 | 206 | 0.0 | 0.0 | 0.00 | 0.00 | 0.00 | 85 | 1030.2 |
| 20260902110448 | 8 | 192 | 0.0 | 0.0 | 0.00 | 0.00 | 0.00 | 85 | 1029.9 |
| 20260902105943 | 8 | 224 | 0.0 | 0.0 | 0.00 | 0.00 | 0.00 | 83 | 1030.2 |
| 20260902105439 | 8 | 163 | 4.8 | 4.8 | 0.00 | 0.00 | 0.00 | 85 | 1029.9 |
| 20260902104933 | 8 | 226 | 0.0 | 0.0 | 0.00 | 0.00 | 0.00 | 85 | 1030.3 |
| 20260902104429 | 8 | 166 | 3.2 | 3.2 | 0.00 | 0.00 | 0.00 | 86 | 1030.0 |
| 20260902103929 | 8 | 211 | 0.0 | 0.0 | 0.00 | 0.00 | 0.00 | 84 | 1030.2 |
| 20260902103424 | 9 | 232 | 0.0 | 0.0 | 0.00 | 0.00 | 0.00 | 81 | 1030.0 |
| 20260902102919 | 8 | 152 | 3.2 | 3.2 | 0.00 | 0.00 | 0.00 | 81 | 1030.0 |
| 20260902102416 | 9 | 211 | 0.0 | 0.0 | 0.00 | 0.00 | 0.00 | 81 | 1030.0 |
| 20260902101912 | 9 | 206 | 0.0 | 0.0 | 0.00 | 0.00 | 0.00 | 81 | 1030.0 |
| 20260902101406 | 9 | 198 | 0.0 | 1.6 | 0.00 | 0.00 | 0.00 | 81 | 1030.3 |
| 20260902100906 | 9 | 220 | 0.0 | 0.0 | 0.00 | 0.00 | 0.00 | 80 | 1030.0 |
| 20260902100406 | 9 | 207 | 0.0 | 0.0 | 0.00 | 0.00 | 0.00 | 80 | 1029.8 |
| 20260902095900 | 8 | 175 | 1.6 | 3.2 | 0.00 | 0.00 | 0.00 | 82 | 1029.9 |
| 20260902095355 | 9 | 222 | 0.0 | 0.0 | 0.00 | 0.00 | 0.00 | 81 | 1030.0 |
| 20260902094855 | 9 | 190 | 1.6 | 1.6 | 0.00 | 0.00 | 0.00 | 81 | 1030.0 |
| 20260902094351 | 10 | 181 | 3.2 | 3.2 | 0.00 | 0.00 | 0.00 | 79 | 1030.2 |
| 20260902093850 | 10 | 218 | 0.0 | 0.0 | 0.00 | 0.00 | 0.00 | 79 | 1030.3 |
| 20260902093346 | 10 | 209 | 0.0 | 0.0 | 0.00 | 0.00 | 0.00 | 78 | 1030.2 |
| 20260902092844 | 10 | 180 | 3.2 | 3.2 | 0.00 | 0.00 | 0.00 | 79 | 1030.2 |
| 20260902092340 | 10 | 207 | 0.0 | 0.0 | 0.00 | 0.00 | 0.00 | 79 | 1030.3 |
| 20260902091834 | 10 | 187 | 1.6 | 1.6 | 0.00 | 0.00 | 0.00 | 79 | 1030.0 |
| 20260902091330 | 10 | 196 | 0.0 | 1.6 | 0.00 | 0.00 | 0.00 | 79 | 1030.2 |
| 20260902090827 | 10 | 221 | 0.0 | 0.0 | 0.00 | 0.00 | 0.00 | 78 | 1030.2 |
| 20260902090326 | 10 | 211 | 0.0 | 0.0 | 0.00 | 0.00 | 0.00 | 78 | 1030.3 |
| 20260902085825 | 10 | 193 | 0.0 | 0.0 | 0.00 | 0.00 | 0.00 | 78 | 1030.2 |
| 20260902085321 | 10 | 203 | 0.0 | 1.6 | 0.00 | 0.00 | 0.00 | 78 | 1030.2 |
| 20260902084816 | 10 | 172 | 1.6 | 3.2 | 0.00 | 0.00 | 0.00 | 78 | 1030.3 |
| 20260902084313 | 10 | 214 | 0.0 | 0.0 | 0.00 | 0.00 | 0.00 | 78 | 1029.9 |
| 20260902083808 | 10 | 214 | 0.0 | 0.0 | 0.00 | 0.00 | 0.00 | 77 | 1030.3 |
| 20260902083307 | 10 | 213 | 0.0 | 0.0 | 0.00 | 0.00 | 0.00 | 77 | 1030.2 |
| 20260902082802 | 9 | 192 | 0.0 | 1.6 | 0.00 | 0.00 | 0.00 | 80 | 1030.2 |
| 20260902082259 | 10 | 218 | 0.0 | 0.0 | 0.00 | 0.00 | 0.00 | 79 | 1030.2 |
| 20260902081755 | 10 | 218 | 0.0 | 0.0 | 0.00 | 0.00 | 0.00 | 79 | 1030.2 |
| 20260902081250 | 10 | 212 | 0.0 | 0.0 | 0.00 | 0.00 | 0.00 | 78 | 1030.2 |
| 20260902080745 | 10 | 196 | 1.6 | 1.6 | 0.00 | 0.00 | 0.00 | 79 | 1030.3 |
| 20260902080243 | 10 | 201 | 0.0 | 1.6 | 0.00 | 0.00 | 0.00 | 80 | 1030.4 |
| 20260902075741 | 10 | 216 | 0.0 | 0.0 | 0.00 | 0.00 | 0.00 | 80 | 1030.7 |
| 20260902075237 | 10 | 194 | 0.0 | 0.0 | 0.00 | 0.00 | 0.00 | 80 | 1030.4 |
| 20260902074732 | 10 | 214 | 0.0 | 0.0 | 0.00 | 0.00 | 0.00 | 80 | 1030.4 |
| 20260902074228 | 10 | 166 | 3.2 | 3.2 | 0.00 | 0.00 | 0.00 | 80 | 1030.4 |
| 20260902073723 | 10 | 217 | 0.0 | 0.0 | 0.00 | 0.00 | 0.00 | 79 | 1030.4 |
| 20260902073219 | 10 | 204 | 0.0 | 0.0 | 0.00 | 0.00 | 0.00 | 79 | 1030.5 |
| 20260902072715 | 10 | 213 | 0.0 | 0.0 | 0.00 | 0.00 | 0.00 | 78 | 1030.3 |
| 20260902072211 | 10 | 214 | 0.0 | 0.0 | 0.00 | 0.00 | 0.00 | 78 | 1030.2 |
| 20260902071706 | 10 | 198 | 0.0 | 0.0 | 0.00 | 0.00 | 0.00 | 78 | 1030.4 |
| 20260902071201 | 10 | 202 | 0.0 | 1.6 | 0.00 | 0.00 | 0.00 | 79 | 1030.3 |
| 20260902070658 | 10 | 176 | 1.6 | 1.6 | 0.00 | 0.00 | 0.00 | 78 | 1030.2 |
| 20260902070157 | 10 | 193 | 0.0 | 1.6 | 0.00 | 0.00 | 0.00 | 78 | 1030.3 |
| 20260902065655 | 10 | 184 | 1.6 | 1.6 | 0.00 | 0.00 | 0.00 | 78 | 1030.2 |
| 20260902065152 | 10 | 179 | 1.6 | 1.6 | 0.00 | 0.00 | 0.00 | 78 | 1030.5 |
| 20260902064647 | 10 | 209 | 0.0 | 0.0 | 0.00 | 0.00 | 0.00 | 78 | 1030.5 |
| 20260902064142 | 10 | 196 | 0.0 | 0.0 | 0.00 | 0.00 | 0.00 | 78 | 1030.7 |
| 20260902063637 | 10 | 199 | 1.6 | 1.6 | 0.00 | 0.00 | 0.00 | 78 | 1030.4 |
| 20260902063132 | 10 | 190 | 0.0 | 0.0 | 0.00 | 0.00 | 0.00 | 78 | 1030.5 |
| 20260902062631 | 10 | 176 | 0.0 | 1.6 | 0.00 | 0.00 | 0.00 | 78 | 1030.5 |
| 20260902062127 | 10 | 218 | 0.0 | 0.0 | 0.00 | 0.00 | 0.00 | 77 | 1030.5 |
| 20260902061626 | 11 | 213 | 0.0 | 0.0 | 0.00 | 0.00 | 0.00 | 76 | 1030.5 |
| 20260902061122 | 10 | 167 | 3.2 | 3.2 | 0.00 | 0.00 | 0.00 | 76 | 1030.7 |
| 20260902060619 | 10 | 194 | 1.6 | 1.6 | 0.00 | 0.00 | 0.00 | 77 | 1030.3 |
| 20260902060115 | 10 | 218 | 0.0 | 0.0 | 0.00 | 0.00 | 0.00 | 76 | 1030.4 |
| 20260902055610 | 11 | 213 | 0.0 | 0.0 | 0.00 | 0.10 | 0.10 | 76 | 1030.3 |
| 20260902055105 | 11 | 203 | 0.0 | 0.0 | 0.00 | 0.10 | 0.10 | 75 | 1030.4 |
| 20260902054600 | 11 | 213 | 0.0 | 0.0 | 0.00 | 0.10 | 0.10 | 74 | 1030.4 |
| 20260902054056 | 11 | 195 | 0.0 | 0.0 | 0.00 | 0.10 | 0.10 | 74 | 1030.4 |
| 20260902053551 | 11 | 213 | 0.0 | 0.0 | 0.00 | 0.10 | 0.10 | 74 | 1030.5 |
| 20260902053050 | 11 | 153 | 1.6 | 1.6 | 0.00 | 0.10 | 0.10 | 75 | 1030.2 |
| 20260902052545 | 11 | 195 | 0.0 | 1.6 | 0.00 | 0.10 | 0.10 | 75 | 1030.4 |
| 20260902052041 | 11 | 201 | 0.0 | 1.6 | 0.00 | 0.10 | 0.10 | 77 | 1030.5 |
| 20260902051540 | 11 | 209 | 0.0 | 0.0 | 0.00 | 0.10 | 0.10 | 76 | 1030.4 |
| 20260902051039 | 11 | 217 | 0.0 | 0.0 | 0.00 | 0.10 | 0.10 | 76 | 1030.8 |
| 20260902050534 | 11 | 201 | 1.6 | 1.6 | 0.00 | 0.10 | 0.10 | 74 | 1030.8 |
| 20260902050030 | 11 | 206 | 0.0 | 0.0 | 0.00 | 0.10 | 0.10 | 74 | 1030.4 |
| 20260902045525 | 11 | 185 | 1.6 | 1.6 | 0.00 | 0.10 | 0.10 | 75 | 1030.7 |
| 20260902045021 | 11 | 206 | 0.0 | 0.0 | 0.00 | 0.10 | 0.10 | 75 | 1030.4 |
| 20260902044516 | 11 | 189 | 1.6 | 1.6 | 0.00 | 0.10 | 0.10 | 75 | 1030.5 |
| 20260902044012 | 11 | 201 | 1.6 | 1.6 | 0.00 | 0.10 | 0.10 | 75 | 1030.8 |
| 20260902043507 | 11 | 205 | 0.0 | 0.0 | 0.00 | 0.10 | 0.10 | 75 | 1030.5 |
| 20260902043006 | 11 | 201 | 0.0 | 0.0 | 0.00 | 0.10 | 0.10 | 75 | 1030.5 |
| 20260902042501 | 11 | 212 | 0.0 | 0.0 | 0.00 | 0.10 | 0.10 | 75 | 1030.8 |
| 20260902041956 | 11 | 184 | 1.6 | 1.6 | 0.00 | 0.10 | 0.10 | 74 | 1030.8 |
| 20260902041456 | 11 | 214 | 0.0 | 0.0 | 0.00 | 0.10 | 0.10 | 74 | 1030.8 |
| 20260902040951 | 12 | 195 | 1.6 | 1.6 | 0.00 | 0.10 | 0.10 | 73 | 1030.8 |
| 20260902040450 | 12 | 212 | 0.0 | 0.0 | 0.00 | 0.10 | 0.10 | 73 | 1030.5 |
| 20260902035944 | 12 | 204 | 1.6 | 1.6 | 0.00 | 0.10 | 0.10 | 73 | 1030.7 |
| 20260902035439 | 12 | 182 | 1.6 | 1.6 | 0.00 | 0.10 | 0.10 | 73 | 1030.5 |
| 20260902034939 | 12 | 187 | 1.6 | 1.6 | 0.00 | 0.10 | 0.10 | 74 | 1030.5 |
| 20260902034433 | 12 | 187 | 1.6 | 1.6 | 0.00 | 0.10 | 0.10 | 73 | 1030.4 |
| 20260902033933 | 12 | 197 | 1.6 | 1.6 | 0.00 | 0.10 | 0.10 | 72 | 1030.7 |
| 20260902033432 | 12 | 178 | 1.6 | 1.6 | 0.00 | 0.10 | 0.10 | 72 | 1030.7 |
| 20260902032931 | 12 | 204 | 0.0 | 1.6 | 0.00 | 0.10 | 0.10 | 72 | 1030.8 |
| 20260902032426 | 12 | 223 | 1.6 | 1.6 | 0.00 | 0.10 | 0.10 | 71 | 1030.7 |
| 20260902031921 | 12 | 214 | 0.0 | 0.0 | 0.00 | 0.10 | 0.10 | 71 | 1030.8 |
| 20260902031416 | 12 | 213 | 0.0 | 0.0 | 0.00 | 0.10 | 0.10 | 71 | 1030.7 |
| 20260902030912 | 13 | 219 | 0.0 | 0.0 | 0.00 | 0.10 | 0.10 | 71 | 1030.3 |
| 20260902030407 | 13 | 195 | 0.0 | 0.0 | 0.00 | 0.10 | 0.10 | 70 | 1030.3 |
| 20260902025905 | 13 | 192 | 0.0 | 1.6 | 0.00 | 0.10 | 0.10 | 70 | 1030.4 |
| 20260902025356 | 13 | 219 | 0.0 | 0.0 | 0.00 | 0.10 | 0.10 | 68 | 1030.4 |
| 20260902024856 | 13 | 203 | 0.0 | 0.0 | 0.00 | 0.10 | 0.10 | 68 | 1030.0 |
| 20260902024351 | 14 | 206 | 0.0 | 0.0 | 0.00 | 0.10 | 0.10 | 67 | 1030.3 |
| 20260902023846 | 14 | 198 | 1.6 | 1.6 | 0.00 | 0.10 | 0.10 | 67 | 1030.4 |
| 20260902023336 | 14 | 219 | 0.0 | 0.0 | 0.00 | 0.10 | 0.10 | 66 | 1029.9 |
| 20260902022835 | 15 | 198 | 0.0 | 0.0 | 0.00 | 0.10 | 0.10 | 65 | 1029.9 |
| 20260902022331 | 15 | 214 | 0.0 | 0.0 | 0.00 | 0.10 | 0.10 | 64 | 1030.0 |
| 20260902021827 | 15 | 194 | 1.6 | 1.6 | 0.00 | 0.10 | 0.10 | 65 | 1029.8 |
| 20260902021327 | 16 | 222 | 0.0 | 0.0 | 0.00 | 0.10 | 0.10 | 63 | 1029.8 |
| 20260902020823 | 16 | 222 | 0.0 | 1.6 | 0.00 | 0.10 | 0.10 | 61 | 1029.5 |
| 20260902020319 | 16 | 220 | 0.0 | 0.0 | 0.00 | 0.10 | 0.10 | 61 | 1029.8 |
| 20260902015814 | 16 | 212 | 0.0 | 1.6 | 0.00 | 0.10 | 0.10 | 62 | 1029.7 |
| 20260902015310 | 16 | 219 | 0.0 | 0.0 | 0.00 | 0.10 | 0.10 | 62 | 1029.8 |
| 20260902014805 | 16 | 206 | 0.0 | 0.0 | 0.00 | 0.10 | 0.10 | 61 | 1029.7 |
| 20260902014302 | 16 | 195 | 1.6 | 1.6 | 0.00 | 0.10 | 0.10 | 61 | 1029.7 |
| 20260902013800 | 16 | 193 | 1.6 | 1.6 | 0.00 | 0.10 | 0.10 | 62 | 1029.5 |
| 20260902013256 | 16 | 212 | 0.0 | 0.0 | 0.00 | 0.10 | 0.10 | 62 | 1029.7 |
| 20260902012751 | 16 | 219 | 0.0 | 0.0 | 0.00 | 0.10 | 0.10 | 62 | 1029.4 |
| 20260902012247 | 16 | 212 | 0.0 | 0.0 | 0.00 | 0.10 | 0.10 | 62 | 1029.5 |
| 20260902011743 | 17 | 214 | 0.0 | 0.0 | 0.00 | 0.10 | 0.10 | 60 | 1029.7 |
| 20260902011242 | 17 | 224 | 0.0 | 0.0 | 0.00 | 0.10 | 0.10 | 60 | 1029.8 |
| 20260902010741 | 18 | 222 | 0.0 | 0.0 | 0.00 | 0.10 | 0.10 | 59 | 1029.5 |
| 20260902010237 | 18 | 217 | 0.0 | 0.0 | 0.00 | 0.10 | 0.10 | 57 | 1029.5 |
| 20260902005736 | 19 | 219 | 0.0 | 0.0 | 0.00 | 0.10 | 0.10 | 56 | 1029.4 |
| 20260902005232 | 20 | 219 | 0.0 | 0.0 | 0.00 | 0.10 | 0.10 | 55 | 1029.5 |
| 20260902004731 | 20 | 221 | 0.0 | 0.0 | 0.00 | 0.10 | 0.10 | 51 | 1029.7 |
| 20260902004226 | 21 | 220 | 0.0 | 0.0 | 0.00 | 0.10 | 0.10 | 47 | 1029.3 |
| 20260902003721 | 20 | 207 | 0.0 | 1.6 | 0.00 | 0.10 | 0.10 | 48 | 1029.3 |
| 20260902003217 | 20 | 203 | 0.0 | 0.0 | 0.00 | 0.10 | 0.10 | 49 | 1029.3 |
| 20260902002713 | 20 | 214 | 0.0 | 0.0 | 0.00 | 0.10 | 0.10 | 48 | 1029.4 |
| 20260902002212 | 20 | 214 | 0.0 | 0.0 | 0.00 | 0.10 | 0.10 | 47 | 1029.3 |
| 20260902001708 | 21 | 209 | 0.0 | 1.6 | 0.00 | 0.10 | 0.10 | 47 | 1029.3 |
| 20260902001207 | 21 | 222 | 0.0 | 0.0 | 0.00 | 0.10 | 0.10 | 45 | 1029.4 |
| 20260902000703 | 21 | 6 | 3.2 | 3.2 | 0.00 | 0.10 | 0.10 | 45 | 1029.3 |
| 20260902000158 | 22 | 226 | 3.2 | 3.2 | 0.00 | 0.10 | 0.10 | 46 | 1029.4 |
| 20260901235657 | 22 | 291 | 3.2 | 3.2 | 0.00 | 0.10 | 0.10 | 44 | 1029.3 |
| 20260901235152 | 22 | 214 | 0.0 | 0.0 | 0.00 | 0.10 | 0.10 | 46 | 1029.3 |
| 20260901234651 | 22 | 216 | 0.0 | 0.0 | 0.00 | 0.10 | 0.10 | 45 | 1029.1 |
| 20260901234147 | 22 | 145 | 4.8 | 4.8 | 0.00 | 0.10 | 0.10 | 45 | 1029.5 |
| 20260901233641 | 22 | 305 | 1.6 | 3.2 | 0.00 | 0.10 | 0.10 | 44 | 1029.0 |
| 20260901233137 | 22 | 233 | 3.2 | 4.8 | 0.00 | 0.10 | 0.10 | 43 | 1029.3 |
| 20260901232632 | 23 | 240 | 4.8 | 4.8 | 0.00 | 0.10 | 0.10 | 44 | 1029.1 |
| 20260901232127 | 23 | 257 | 6.4 | 8.0 | 0.00 | 0.10 | 0.10 | 42 | 1029.1 |
| 20260901231624 | 23 | 249 | 3.2 | 3.2 | 0.00 | 0.10 | 0.10 | 43 | 1029.3 |
| 20260901231120 | 22 | 238 | 0.0 | 0.0 | 0.00 | 0.10 | 0.10 | 43 | 1029.3 |
| 20260901230616 | 22 | 183 | 0.0 | 0.0 | 0.00 | 0.10 | 0.10 | 43 | 1029.4 |
| 20260901230115 | 22 | 229 | 3.2 | 3.2 | 0.00 | 0.10 | 0.10 | 43 | 1029.3 |
| 20260901225610 | 22 | 225 | 3.2 | 3.2 | 0.00 | 0.10 | 0.10 | 43 | 1029.3 |
| 20260901225110 | 22 | 221 | 1.6 | 1.6 | 0.00 | 0.10 | 0.10 | 43 | 1029.3 |
| 20260901224607 | 22 | 172 | 3.2 | 3.2 | 0.00 | 0.10 | 0.10 | 40 | 1029.0 |
| 20260901224103 | 22 | 347 | 0.0 | 0.0 | 0.00 | 0.10 | 0.10 | 42 | 1029.1 |
| 20260901223557 | 23 | 223 | 1.6 | 3.2 | 0.00 | 0.10 | 0.10 | 43 | 1029.3 |
| 20260901223053 | 25 | 136 | 3.2 | 4.8 | 0.00 | 0.10 | 0.10 | 40 | 1029.3 |
| 20260901222549 | 23 | 212 | 1.6 | 1.6 | 0.00 | 0.10 | 0.10 | 42 | 1029.4 |
| 20260901222045 | 24 | 45 | 4.8 | 4.8 | 0.00 | 0.10 | 0.10 | 41 | 1029.3 |
| 20260901221541 | 23 | 28 | 1.6 | 3.2 | 0.00 | 0.10 | 0.10 | 41 | 1029.5 |
| 20260901221036 | 22 | 250 | 3.2 | 3.2 | 0.00 | 0.10 | 0.10 | 42 | 1029.5 |
| 20260901220535 | 21 | 223 | 1.6 | 1.6 | 0.00 | 0.10 | 0.10 | 44 | 1029.7 |
| 20260901220034 | 21 | 18 | 3.2 | 4.8 | 0.00 | 0.10 | 0.10 | 44 | 1029.5 |
| 20260901215533 | 22 | 347 | 8.0 | 9.7 | 0.00 | 0.10 | 0.10 | 43 | 1029.8 |
| 20260901215032 | 22 | 157 | 1.6 | 3.2 | 0.00 | 0.10 | 0.10 | 44 | 1029.5 |
| 20260901214531 | 21 | 2 | 4.8 | 4.8 | 0.00 | 0.10 | 0.10 | 44 | 1029.8 |
| 20260901214026 | 22 | 240 | 1.6 | 1.6 | 0.00 | 0.10 | 0.10 | 43 | 1029.5 |
| 20260901213520 | 22 | 23 | 11.3 | 12.9 | 0.00 | 0.10 | 0.10 | 43 | 1029.7 |
| 20260901213020 | 22 | 28 | 8.0 | 9.7 | 0.00 | 0.10 | 0.10 | 44 | 1029.8 |
| 20260901212514 | 22 | 29 | 4.8 | 4.8 | 0.00 | 0.10 | 0.10 | 44 | 1029.8 |
| 20260901212011 | 22 | 359 | 4.8 | 4.8 | 0.00 | 0.10 | 0.10 | 43 | 1029.8 |
| 20260901211506 | 22 | 48 | 4.8 | 8.0 | 0.00 | 0.10 | 0.10 | 43 | 1029.4 |
| 20260901211002 | 23 | 214 | 1.6 | 3.2 | 0.00 | 0.10 | 0.10 | 43 | 1029.7 |
| 20260901210457 | 22 | 192 | 4.8 | 8.0 | 0.00 | 0.10 | 0.10 | 45 | 1029.8 |
| 20260901205953 | 22 | 339 | 8.0 | 9.7 | 0.00 | 0.10 | 0.10 | 44 | 1029.5 |
| 20260901205449 | 22 | 320 | 4.8 | 4.8 | 0.00 | 0.10 | 0.10 | 44 | 1029.7 |
| 20260901204943 | 22 | 247 | 4.8 | 4.8 | 0.00 | 0.10 | 0.10 | 44 | 1029.7 |
| 20260901204440 | 23 | 302 | 6.4 | 9.7 | 0.00 | 0.10 | 0.10 | 43 | 1029.5 |
| 20260901203939 | 22 | 241 | 3.2 | 4.8 | 0.00 | 0.10 | 0.10 | 42 | 1029.7 |
| 20260901203434 | 23 | 58 | 9.7 | 11.3 | 0.00 | 0.10 | 0.10 | 42 | 1029.5 |
| 20260901202929 | 22 | 344 | 3.2 | 3.2 | 0.00 | 0.10 | 0.10 | 43 | 1029.8 |
| 20260901202430 | 22 | 11 | 4.8 | 8.0 | 0.00 | 0.10 | 0.10 | 43 | 1029.7 |
| 20260901201926 | 22 | 4 | 6.4 | 9.7 | 0.00 | 0.10 | 0.10 | 43 | 1029.7 |
| 20260901201426 | 22 | 153 | 0.0 | 1.6 | 0.00 | 0.10 | 0.10 | 43 | 1030.0 |
| 20260901200920 | 22 | 245 | 1.6 | 3.2 | 0.00 | 0.10 | 0.10 | 40 | 1029.9 |
| 20260901200415 | 22 | 74 | 4.8 | 9.7 | 0.00 | 0.10 | 0.10 | 40 | 1029.8 |
| 20260901195914 | 22 | 32 | 1.6 | 3.2 | 0.00 | 0.10 | 0.10 | 42 | 1029.7 |
| 20260901195413 | 22 | 171 | 3.2 | 4.8 | 0.00 | 0.10 | 0.10 | 43 | 1030.0 |
| 20260901194908 | 22 | 190 | 0.0 | 1.6 | 0.00 | 0.10 | 0.10 | 43 | 1029.8 |
| 20260901194402 | 22 | 287 | 8.0 | 11.3 | 0.00 | 0.10 | 0.10 | 43 | 1030.0 |
| 20260901193858 | 23 | 331 | 3.2 | 3.2 | 0.00 | 0.10 | 0.10 | 37 | 1029.9 |
| 20260901193352 | 22 | 216 | 1.6 | 1.6 | 0.00 | 0.10 | 0.10 | 36 | 1029.9 |
| 20260901192852 | 22 | 52 | 0.0 | 1.6 | 0.00 | 0.10 | 0.10 | 39 | 1029.9 |
| 20260901192348 | 22 | 215 | 4.8 | 4.8 | 0.00 | 0.10 | 0.10 | 36 | 1030.2 |
| 20260901191844 | 22 | 220 | 1.6 | 3.2 | 0.00 | 0.10 | 0.10 | 39 | 1029.9 |
| 20260901191339 | 22 | 317 | 4.8 | 4.8 | 0.00 | 0.10 | 0.10 | 39 | 1029.9 |
| 20260901190835 | 22 | 190 | 1.6 | 1.6 | 0.00 | 0.10 | 0.10 | 39 | 1030.2 |
| 20260901190335 | 22 | 276 | 6.4 | 8.0 | 0.00 | 0.10 | 0.10 | 39 | 1030.2 |
| 20260901185833 | 22 | 130 | 4.8 | 8.0 | 0.00 | 0.10 | 0.10 | 38 | 1030.2 |
| 20260901185332 | 22 | 221 | 0.0 | 1.6 | 0.00 | 0.10 | 0.10 | 40 | 1030.0 |
| 20260901184828 | 24 | 264 | 4.8 | 4.8 | 0.00 | 0.10 | 0.10 | 37 | 1030.3 |
| 20260901184323 | 23 | 228 | 0.0 | 0.0 | 0.00 | 0.10 | 0.10 | 36 | 1030.5 |
| 20260901183819 | 22 | 210 | 8.0 | 9.7 | 0.00 | 0.10 | 0.10 | 38 | 1030.3 |
| 20260901183318 | 22 | 250 | 1.6 | 3.2 | 0.00 | 0.10 | 0.10 | 36 | 1030.5 |
| 20260901182815 | 22 | 272 | 9.7 | 11.3 | 0.00 | 0.10 | 0.10 | 39 | 1030.7 |
| 20260901182314 | 23 | 184 | 3.2 | 4.8 | 0.00 | 0.10 | 0.10 | 37 | 1030.8 |
| 20260901181809 | 23 | 103 | 0.0 | 0.0 | 0.00 | 0.10 | 0.10 | 36 | 1030.3 |
| 20260901181303 | 23 | 163 | 6.4 | 9.7 | 0.00 | 0.10 | 0.10 | 36 | 1030.4 |
| 20260901180757 | 23 | 203 | 1.6 | 3.2 | 0.00 | 0.10 | 0.10 | 38 | 1030.8 |
| 20260901180256 | 23 | 214 | 3.2 | 3.2 | 0.00 | 0.10 | 0.10 | 42 | 1030.8 |
| 20260901175755 | 22 | 236 | 1.6 | 3.2 | 0.00 | 0.10 | 0.10 | 38 | 1030.7 |
| 20260901175250 | 22 | 225 | 1.6 | 3.2 | 0.00 | 0.10 | 0.10 | 41 | 1030.9 |
| 20260901174745 | 21 | 191 | 1.6 | 1.6 | 0.00 | 0.10 | 0.10 | 41 | 1030.9 |
| 20260901174241 | 22 | 180 | 3.2 | 4.8 | 0.00 | 0.10 | 0.10 | 42 | 1031.0 |
| 20260901173737 | 20 | 93 | 4.8 | 8.0 | 0.00 | 0.10 | 0.10 | 41 | 1031.2 |
| 20260901173231 | 21 | 213 | 1.6 | 1.6 | 0.00 | 0.10 | 0.10 | 41 | 1031.2 |
| 20260901172728 | 21 | 248 | 1.6 | 3.2 | 0.00 | 0.10 | 0.10 | 42 | 1030.9 |
| 20260901172226 | 21 | 177 | 0.0 | 0.0 | 0.00 | 0.10 | 0.10 | 42 | 1031.2 |
| 20260901171725 | 20 | 210 | 3.2 | 4.8 | 0.00 | 0.10 | 0.10 | 47 | 1031.2 |
| 20260901171224 | 20 | 211 | 1.6 | 3.2 | 0.00 | 0.10 | 0.10 | 45 | 1031.2 |
| 20260901170723 | 20 | 227 | 4.8 | 4.8 | 0.00 | 0.10 | 0.10 | 47 | 1031.3 |
| 20260901170218 | 20 | 179 | 1.6 | 3.2 | 0.00 | 0.10 | 0.10 | 43 | 1031.0 |
| 20260901165717 | 21 | 213 | 0.0 | 1.6 | 0.00 | 0.10 | 0.10 | 49 | 1031.3 |
| 20260901165212 | 21 | 141 | 1.6 | 1.6 | 0.00 | 0.10 | 0.10 | 45 | 1031.0 |
| 20260901164708 | 21 | 208 | 0.0 | 0.0 | 0.00 | 0.10 | 0.10 | 44 | 1031.3 |
| 20260901164203 | 21 | 216 | 3.2 | 3.2 | 0.00 | 0.10 | 0.10 | 45 | 1031.3 |
| 20260901163658 | 21 | 216 | 3.2 | 4.8 | 0.00 | 0.10 | 0.10 | 45 | 1031.5 |
| 20260901163157 | 21 | 227 | 4.8 | 4.8 | 0.00 | 0.10 | 0.10 | 45 | 1031.0 |
| 20260901162653 | 21 | 191 | 8.0 | 11.3 | 0.00 | 0.10 | 0.10 | 44 | 1031.3 |
| 20260901162152 | 20 | 178 | 6.4 | 9.7 | 0.00 | 0.10 | 0.10 | 46 | 1031.0 |
| 20260901161651 | 20 | 200 | 1.6 | 3.2 | 0.00 | 0.10 | 0.10 | 50 | 1031.2 |
| 20260901161151 | 20 | 153 | 4.8 | 8.0 | 0.00 | 0.10 | 0.10 | 44 | 1031.4 |
| 20260901160648 | 20 | 186 | 4.8 | 4.8 | 0.00 | 0.10 | 0.10 | 45 | 1031.5 |
| 20260901160142 | 20 | 210 | 3.2 | 4.8 | 0.00 | 0.10 | 0.10 | 47 | 1031.2 |
| 20260901155641 | 19 | 165 | 3.2 | 3.2 | 0.00 | 0.10 | 0.10 | 49 | 1031.3 |
| 20260901155137 | 19 | 117 | 3.2 | 8.0 | 0.00 | 0.10 | 0.10 | 50 | 1031.2 |
| 20260901154632 | 20 | 108 | 9.7 | 11.3 | 0.00 | 0.10 | 0.10 | 45 | 1031.3 |
| 20260901154126 | 19 | 147 | 1.6 | 3.2 | 0.00 | 0.10 | 0.10 | 53 | 1031.5 |
| 20260901153622 | 19 | 214 | 0.0 | 1.6 | 0.00 | 0.10 | 0.10 | 48 | 1031.5 |
| 20260901153121 | 18 | 196 | 0.0 | 1.6 | 0.00 | 0.10 | 0.10 | 54 | 1031.3 |
| 20260901152617 | 17 | 152 | 3.2 | 3.2 | 0.00 | 0.10 | 0.10 | 55 | 1031.5 |
| 20260901152115 | 17 | 121 | 6.4 | 9.7 | 0.00 | 0.10 | 0.10 | 52 | 1031.5 |
| 20260901151611 | 16 | 171 | 4.8 | 4.8 | 0.00 | 0.10 | 0.10 | 59 | 1031.5 |
| 20260901151110 | 15 | 216 | 1.6 | 3.2 | 0.00 | 0.10 | 0.10 | 66 | 1031.4 |
| 20260901150609 | 13 | 237 | 0.0 | 0.0 | 0.00 | 0.10 | 0.10 | 82 | 1031.4 |
| 20260901150108 | 12 | 169 | 1.6 | 1.6 | 0.00 | 0.10 | 0.10 | 92 | 1031.2 |
| 20260901145601 | 12 | 203 | 0.0 | 1.6 | 0.00 | 0.10 | 0.10 | 96 | 1031.4 |
| 20260901145100 | 12 | 211 | 0.0 | 0.0 | 0.00 | 0.10 | 0.10 | 97 | 1031.4 |
| 20260901144556 | 11 | 239 | 1.6 | 1.6 | 0.00 | 0.10 | 0.10 | 97 | 1031.2 |
| 20260901144050 | 11 | 204 | 0.0 | 0.0 | 0.00 | 0.10 | 0.10 | 98 | 1031.7 |
| 20260901143541 | 11 | 237 | 0.0 | 0.0 | 0.00 | 0.10 | 0.10 | 99 | 1031.4 |
| 20260901143037 | 11 | 233 | 1.6 | 1.6 | 0.00 | 0.10 | 0.10 | 99 | 1031.4 |
| 20260901142531 | 10 | 216 | 0.0 | 0.0 | 0.00 | 0.10 | 0.10 | 99 | 1031.2 |
| 20260901142026 | 10 | 165 | 1.6 | 1.6 | 0.00 | 0.10 | 0.10 | 99 | 1031.2 |
| 20260901141526 | 10 | 210 | 0.0 | 0.0 | 0.00 | 0.10 | 0.10 | 99 | 1031.2 |
| 20260901141022 | 10 | 224 | 0.0 | 0.0 | 0.00 | 0.10 | 0.10 | 99 | 1031.3 |
| 20260901140520 | 10 | 189 | 1.6 | 1.6 | 0.00 | 0.10 | 0.10 | 99 | 1031.3 |
| 20260901140015 | 10 | 220 | 1.6 | 3.2 | 0.00 | 0.10 | 0.10 | 99 | 1031.3 |
| 20260901135514 | 10 | 207 | 0.0 | 0.0 | 0.00 | 0.10 | 0.10 | 99 | 1031.4 |
| 20260901135010 | 10 | 248 | 0.0 | 0.0 | 0.00 | 0.10 | 0.10 | 99 | 1031.0 |
| 20260901134506 | 10 | 208 | 0.0 | 0.0 | 0.00 | 0.10 | 0.10 | 99 | 1031.0 |